Location: Sun City Center
(27.6996°N, 82.3528°W)
Time: 06:34:25
(UTC-04:00)

Cosmos 2084 Rocket - Visible Passes

Search period start: 18 April 2014 00:00
Search period end: 28 April 2014 00:00
Orbit: 570 x 629 km, 62.8° (Epoch: 17 April)

Date Brightness Start Highest point End Pass type
(mag) Time Alt. Az. Time Alt. Az. Time Alt. Az.
23 Apr 6.6 23:09:40 10° N 23:09:52 11° N 23:09:52 11° N visible
24 Apr 6.6 23:20:16 10° NNW 23:20:36 12° NNW 23:20:36 12° NNW visible
25 Apr 5.9 21:53:27 10° NNE 21:54:40 13° NE 21:54:40 13° NE visible
25 Apr 6.8 23:31:16 10° NW 23:31:23 11° NW 23:31:23 11° NW visible
26 Apr 5.4 22:03:06 10° N 22:05:30 22° NNE 22:05:30 22° NNE visible
27 Apr 4.8 22:13:27 10° NNW 22:16:23 35° N 22:16:23 35° N visible
